When you browse on this site, cookies collect data to enhance your experience and personalize the content and advertising you see.
Visit our Privacy Policy to learn more. By continuing to use the site, you agree to this use of cookies and data.

Tiempo cada hora Lubango

Hoy, 13 Julio, Lunes

Tiempo Temperatura Precipitaciones Viento Presión Humedad
00:00 +14°C° 0 mm 2 mps 609 mmHg 37%
01:00 +14°C° 0 mm 2 mps 609 mmHg 37%
02:00 +13°C° 0 mm 2 mps 609 mmHg 37%
03:00 +13°C° 0 mm 2 mps 608 mmHg 37%
04:00 +13°C° 0 mm 2 mps 608 mmHg 37%
05:00 +13°C° 0 mm 2 mps 608 mmHg 35%
06:00 +12°C° 0 mm 2 mps 608 mmHg 34%
07:00 +12°C° 0 mm 2 mps 608 mmHg 32%
08:00 +16°C° 0 mm 3 mps 610 mmHg 27%
09:00 +19°C° 0 mm 3 mps 611 mmHg 22%
10:00 +24°C° 0 mm 3 mps 612 mmHg 17%
11:00 +25°C° 0 mm 3 mps 612 mmHg 16%
12:00 +26°C° 0 mm 3 mps 612 mmHg 15%
13:00 +27°C° 0 mm 3 mps 612 mmHg 13%
14:00 +27°C° 0 mm 2 mps 611 mmHg 13%
15:00 +27°C° 0 mm 2 mps 611 mmHg 13%
16:00 +27°C° 0 mm 2 mps 610 mmHg 13%
17:00 +23°C° 0 mm 2 mps 609 mmHg 17%
18:00 +19°C° 0 mm 2 mps 608 mmHg 20%
19:00 +16°C° 0 mm 2 mps 608 mmHg 24%
20:00 +15°C° 0 mm 2 mps 608 mmHg 24%
21:00 +15°C° 0 mm 2 mps 608 mmHg 23%
22:00 +14°C° 0 mm 2 mps 608 mmHg 23%
23:00 +14°C° 0 mm 2 mps 608 mmHg 22%

Mañana, 14 Julio, Martes

Tiempo Temperatura Precipitaciones Viento Presión Humedad
00:00 +13°C° 0 mm 2 mps 608 mmHg 21%
01:00 +12°C° 0 mm 3 mps 607 mmHg 20%
02:00 +12°C° 0 mm 3 mps 607 mmHg 20%
03:00 +11°C° 0 mm 3 mps 607 mmHg 20%
04:00 +12°C° 0 mm 2 mps 606 mmHg 19%
05:00 +12°C° 0 mm 2 mps 607 mmHg 19%
06:00 +12°C° 0 mm 2 mps 607 mmHg 18%
07:00 +12°C° 0 mm 2 mps 607 mmHg 18%
08:00 +14°C° 0 mm 3 mps 609 mmHg 15%
09:00 +19°C° 0 mm 3 mps 610 mmHg 12%
10:00 +22°C° 0 mm 4 mps 611 mmHg 9%
11:00 +25°C° 0 mm 3 mps 611 mmHg 9%
12:00 +26°C° 0 mm 3 mps 611 mmHg 9%
13:00 +27°C° 0 mm 2 mps 611 mmHg 9%
14:00 +27°C° 0 mm 2 mps 611 mmHg 9%
15:00 +27°C° 0 mm 2 mps 610 mmHg 9%
16:00 +27°C° 0 mm 2 mps 609 mmHg 9%
17:00 +23°C° 0 mm 2 mps 608 mmHg 11%
18:00 +19°C° 0 mm 2 mps 608 mmHg 14%
19:00 +15°C° 0 mm 2 mps 607 mmHg 17%
20:00 +15°C° 0 mm 2 mps 607 mmHg 17%
21:00 +14°C° 0 mm 2 mps 607 mmHg 17%
22:00 +14°C° 0 mm 2 mps 608 mmHg 17%
23:00 +13°C° 0 mm 3 mps 608 mmHg 16%

Pasado mañana, 15 Julio, Miércoles

Tiempo Temperatura Precipitaciones Viento Presión Humedad
00:00 +12°C° 0 mm 3 mps 608 mmHg 14%
01:00 +12°C° 0 mm 3 mps 608 mmHg 13%
02:00 +12°C° 0 mm 4 mps 607 mmHg 12%
03:00 +11°C° 0 mm 4 mps 607 mmHg 12%
04:00 +10°C° 0 mm 5 mps 607 mmHg 12%
05:00 +9°C° 0 mm 5 mps 607 mmHg 13%
06:00 +9°C° 0 mm 5 mps 607 mmHg 14%
07:00 +9°C° 0 mm 5 mps 608 mmHg 16%
08:00 +13°C° 0 mm 5 mps 609 mmHg 14%
09:00 +16°C° 0 mm 6 mps 610 mmHg 12%
10:00 +20°C° 0 mm 6 mps 612 mmHg 11%
11:00 +22°C° 0 mm 6 mps 612 mmHg 10%
12:00 +23°C° 0 mm 6 mps 612 mmHg 9%
13:00 +26°C° 0 mm 6 mps 612 mmHg 8%
14:00 +26°C° 0 mm 5 mps 611 mmHg 8%
15:00 +26°C° 0 mm 4 mps 611 mmHg 9%
16:00 +26°C° 0 mm 4 mps 610 mmHg 9%
17:00 +22°C° 0 mm 3 mps 610 mmHg 11%
18:00 +19°C° 0 mm 3 mps 609 mmHg 14%
19:00 +14°C° 0 mm 3 mps 608 mmHg 17%
20:00 +14°C° 0 mm 3 mps 609 mmHg 17%
21:00 +14°C° 0 mm 3 mps 609 mmHg 17%
22:00 +13°C° 0 mm 3 mps 609 mmHg 18%
23:00 +13°C° 0 mm 4 mps 609 mmHg 18%

16 Julio, Jueves

Tiempo Temperatura Precipitaciones Viento Presión Humedad
00:00 +12°C° 0 mm 4 mps 609 mmHg 19%
01:00 +11°C° 0 mm 4 mps 609 mmHg 20%
02:00 +10°C° 0 mm 5 mps 608 mmHg 20%
03:00 +10°C° 0 mm 5 mps 608 mmHg 21%
04:00 +9°C° 0 mm 5 mps 608 mmHg 22%
05:00 +9°C° 0 mm 5 mps 608 mmHg 22%
06:00 +9°C° 0 mm 5 mps 609 mmHg 23%
07:00 +9°C° 0 mm 5 mps 609 mmHg 23%
08:00 +12°C° 0 mm 5 mps 610 mmHg 20%
09:00 +15°C° 0 mm 6 mps 611 mmHg 16%
10:00 +19°C° 0 mm 6 mps 613 mmHg 13%
11:00 +21°C° 0 mm 5 mps 613 mmHg 12%
12:00 +23°C° 0 mm 5 mps 612 mmHg 12%
13:00 +25°C° 0 mm 4 mps 612 mmHg 11%
14:00 +25°C° 0 mm 3 mps 612 mmHg 11%
15:00 +25°C° 0 mm 3 mps 612 mmHg 11%
16:00 +25°C° 0 mm 2 mps 611 mmHg 11%
17:00 +21°C° 0 mm 2 mps 611 mmHg 15%
18:00 +18°C° 0 mm 2 mps 610 mmHg 19%
19:00 +15°C° 0 mm 2 mps 609 mmHg 23%
20:00 +15°C° 0 mm 2 mps 610 mmHg 24%
21:00 +13°C° 0 mm 3 mps 610 mmHg 25%
22:00 +12°C° 0 mm 3 mps 610 mmHg 26%
23:00 +12°C° 0 mm 3 mps 610 mmHg 28%

17 Julio, Viernes

Tiempo Temperatura Precipitaciones Viento Presión Humedad
00:00 +11°C° 0 mm 3 mps 610 mmHg 30%
01:00 +11°C° 0 mm 4 mps 609 mmHg 31%
02:00 +10°C° 0 mm 4 mps 609 mmHg 34%
03:00 +10°C° 0 mm 4 mps 609 mmHg 37%
04:00 +8°C° 0 mm 4 mps 608 mmHg 39%
05:00 +8°C° 0 mm 4 mps 608 mmHg 41%
06:00 +8°C° 0 mm 4 mps 609 mmHg 43%
07:00 +7°C° 0 mm 4 mps 609 mmHg 45%
08:00 +11°C° 0 mm 4 mps 610 mmHg 40%
09:00 +14°C° 0 mm 4 mps 611 mmHg 35%
10:00 +16°C° 0 mm 5 mps 612 mmHg 30%
11:00 +19°C° 0 mm 4 mps 612 mmHg 26%
12:00 +21°C° 0 mm 3 mps 612 mmHg 22%
13:00 +25°C° 0 mm 2 mps 612 mmHg 18%
14:00 +24°C° 0 mm 2 mps 612 mmHg 18%
15:00 +24°C° 0 mm 2 mps 611 mmHg 17%
16:00 +24°C° 0 mm 2 mps 611 mmHg 16%
17:00 +20°C° 0 mm 2 mps 610 mmHg 21%
18:00 +17°C° 0 mm 2 mps 609 mmHg 26%
19:00 +14°C° 0 mm 2 mps 608 mmHg 31%
20:00 +13°C° 0 mm 2 mps 608 mmHg 31%
21:00 +13°C° 0 mm 2 mps 608 mmHg 32%
22:00 +11°C° 0 mm 3 mps 609 mmHg 33%
23:00 +10°C° 0 mm 3 mps 608 mmHg 35%

18 Julio, Sábado

Tiempo Temperatura Precipitaciones Viento Presión Humedad
00:00 +10°C° 0 mm 3 mps 608 mmHg 36%
01:00 +8°C° 0 mm 4 mps 608 mmHg 38%
02:00 +7°C° 0 mm 4 mps 607 mmHg 39%
03:00 +7°C° 0 mm 4 mps 607 mmHg 41%
04:00 +6°C° 0 mm 4 mps 607 mmHg 43%
05:00 +6°C° 0 mm 4 mps 607 mmHg 44%
06:00 +6°C° 0 mm 4 mps 607 mmHg 45%
07:00 +5°C° 0 mm 4 mps 607 mmHg 47%
08:00 +8°C° 0 mm 4 mps 608 mmHg 40%
09:00 +12°C° 0 mm 5 mps 609 mmHg 33%
10:00 +15°C° 0 mm 5 mps 611 mmHg 26%
11:00 +18°C° 0 mm 4 mps 611 mmHg 22%
12:00 +20°C° 0 mm 4 mps 611 mmHg 18%
13:00 +22°C° 0 mm 3 mps 611 mmHg 15%
14:00 +22°C° 0 mm 3 mps 611 mmHg 14%
15:00 +24°C° 0 mm 2 mps 610 mmHg 13%
16:00 +24°C° 0 mm 2 mps 610 mmHg 12%
17:00 +19°C° 0 mm 2 mps 609 mmHg 17%
18:00 +16°C° 0 mm 2 mps 608 mmHg 21%
19:00 +13°C° 0 mm 2 mps 607 mmHg 26%
20:00 +12°C° 0 mm 2 mps 607 mmHg 28%
21:00 +12°C° 0 mm 2 mps 608 mmHg 29%
22:00 +10°C° 0 mm 2 mps 608 mmHg 31%
23:00 +9°C° 0 mm 2 mps 607 mmHg 33%
Mostrar más